www.pogodaiklimat.ru

АРХИВ ПОГОДЫ в Ростове-на-Дону

Время (UTC), дата Ветер
(напр.,м/с)
 
Видим.   Явления Облачность Т
(С)
Тd
(С)
f
(%)
Тe
(С)
Тes
(С)
Комфортность P
(гПа)
Po
(гПа)
Тmin
(С)
Tmax
(С)
R
(мм)
S
(см)
03 22.08 В 5 10 км 6/0
[Ac trans Ci fib]
+23.0 +12.3 51 +26 +26 жарко 1015.3 1006.7 +22.4
06 22.08 В 7 10 км 8/0
[Ac trans Ci]
+27.5 +14.9 46 +30 +31 жарко 1015.4 1006.9
09 22.08 В 9-13
{12}
10 км 8/0
[Ac trans Ci]
+32.9 +13.8 31 +34 +35 очень
жарко
1014.6 1006.3
12 22.08 В 9-13
{13}
10 км 9/0
[Ac trans Ci]
+36.0 +8.3 18 +34 +35 очень
жарко
1013.2 1004.9
15 22.08 В 4
{13}
10 км 9/1
[Cb calv Ac trans Ci]
+32.1 +12.2 30 +33 +33 жарко 1012.8 1004.5 +36.3
18 22.08 В 7
{13}
8000 м 8/1
[Cb calv Ac trans Ci fib]
+30.5 +8.3 25 +30 +30 жарко 1014.0 1005.6
21 22.08 В 6
{10}
8000 м 6/1
[Cb calv Ac trans Ci fib]
+26.4 +9.7 35 +27 +27 жарко 1014.6 1006.1
00 23.08 В 5
{10}
8000 м 6/0
[Ac trans Ci fib]
+24.3 +12.8 49 +26 +26 жарко 1015.5 1006.9
03 23.08 В 7
{10}
10 км 5/0
[Ac trans Ci fib]
+22.5 +12.1 52 +25 +25 комфорт 1016.1 1007.5 +22.6
06 23.08 В 7-10
{11}
10 км 4/0
[Ac trans Ci fib]
+25.7 +13.3 46 +28 +29 жарко 1016.2 1007.6
09 23.08 В 8-11
{11}
10 км ясно +32.1 +10.5 27 +32 +34 жарко 1015.5 1007.1
12 23.08 В 7-10
{13}
10 км 6/0
[Ac trans Ci fib]
+32.9 +8.6 22 +32 +33 жарко 1014.1 1005.8
15 23.08 В 6 10 км 6/0
[Ac trans Ci fib]
+31.5 +9.0 25 +31 +31 жарко 1013.3 1004.9 +34.0
18 23.08 СВ 4
{11}
8000 м 6/0
[Ac trans Ci fib]
+27.5 +8.0 29 +27 +27 жарко 1013.0 1004.5
21 23.08 В 6
{11}
8000 м 5/0
[Ac trans]
+25.8 +12.1 42 +27 +27 жарко 1012.6 1004.1
00 24.08 В 6
{11}
8000 м 4/0
[Ac trans]
+23.4 +14.5 57 +27 +27 душно 1013.3 1004.7
03 24.08 В 8-11
{10}
10 км 5/0
[Ac trans]
+21.1 +12.6 58 +23 +23 комфорт 1013.7 1005.0 +21.1
06 24.08 В 7-11
{11}
10 км {ливн. осадки} 8/3
[Cb calv Ac trans Ci fib]
+21.7 +14.5 64 +25 +26 комфорт 1013.1 1004.5
09 24.08 В 6
{10}
10 км 6/0
[Ac trans Ci fib]
+29.9 +17.5 47 +34 +38 очень
душно
1011.9 1003.5
12 24.08 ЮВ 4
{12}
10 км 6/3
[Cb calv Ac trans Ci fib]
+30.5 +15.7 41 +33 +37 душно 1010.3 1001.9
15 24.08 ЮЗ 2 10 км гроза, ливневой дождь 9/4
[Cb cap Ac trans]
+24.7 +19.4 72 +30 +30 очень
душно
1009.5 1001.0 +32.6 1
18 24.08 З 2 6000 м дымка {гроза, ливн. осадки} 6/3
[Cb calv Ac trans]
+23.1 +20.3 84 +30 +30 очень
душно
1010.4 1001.9
21 24.08 З 1 6000 м дымка 6/3
[Cb calv Ac trans]
+21.4 +19.3 88 +26 +26 душно 1009.7 1001.1
00 25.08 ЮВ 1 7000 м дымка 4/1
[Cb calv Ac trans Ci fib]
+19.6 +17.1 85 +23 +23 комфорт 1009.5 1000.8
03 25.08 ЮВ 1 5000 м дымка 5/3
[Cb calv Ac trans]
+20.6 +18.8 89 +26 +26 душно 1009.3 1000.7 +19.2 0.0
06 25.08 Ю 3 10 км 5/3
[Cb calv Ac trans Ci fib]
+25.0 +19.6 72 +30 +34 душно 1009.6 1001.1
09 25.08 ЮЗ 5 10 км 8/4
[Cb calv Ac trans Ci fib]
+28.6 +18.9 56 +34 +37 очень
душно
1009.1 1000.7
12 25.08 ЮЗ 5
{11}
10 км 8/4
[Cb calv Ac trans Ci fib]
+28.8 +18.7 54 +34 +36 очень
душно
1009.3 1000.9
15 25.08 З 4
{10}
10 км 6/1
[Cb calv Ac trans Ci fib]
+26.3 +18.7 63 +31 +32 душно 1009.8 1001.3 +29.5
18 25.08 З 2
{10}
8000 м 5/0
[Ci fib]
+23.9 +16.3 62 +27 +27 жарко 1011.2 1002.7
21 25.08 СЗ 1 8000 м дым 3/0
[Ci fib]
+21.1 +16.3 74 +24 +24 комфорт 1011.0 1002.4
00 26.08 СЗ 2 6000 м дымка ясно +18.6 +15.7 83 +20 +20 тепло 1011.9 1003.2
03 26.08 СЗ 2 4900 м дымка 8/4 200 м
[Cb calv Ac trans]
+18.7 +17.0 90 +20 +20 тепло 1012.0 1003.3 +17.5
06 26.08 ЮЗ 1 5000 м дымка 9/5 400 м
[St Ac trans]
+20.7 +18.0 85 +26 +28 душно 1013.9 1005.2
09 26.08 СЗ 2 6000 м дым 9/4
[Sc Ac trans]
+23.3 +16.7 66 +28 +32 душно 1014.1 1005.5
12 26.08 СЗ 2 10 км 8/4
[Sc Ac trans]
+25.1 +15.9 57 +28 +31 жарко 1014.3 1005.8
15 26.08 СЗ 1 10 км 8/1
[Sc Ac trans Ci]
+24.9 +14.7 53 +28 +28 жарко 1014.9 1006.3 +25.8
18 26.08 С 3 7000 м дым 8/0
[Ac trans Ci fib]
+22.0 +16.5 71 +26 +26 душно 1016.0 1007.4
21 26.08 С 4 8000 м дым 3/0
[Ci fib]
+20.8 +16.5 76 +24 +24 комфорт 1016.3 1007.6
00 27.08 СВ 2 7000 м дымка 3/0
[Ci fib]
+18.7 +16.0 84 +20 +20 тепло 1016.9 1008.1
03 27.08 СВ 2 4000 м дымка 4/1
[Cb calv Ac trans Ci fib]
+19.3 +16.6 84 +22 +22 комфорт 1017.7 1009.0 +17.3
06 27.08 СВ 3 10 км 3/0
[Ci fib]
+24.7 +18.1 67 +29 +34 душно 1018.1 1009.5
09 27.08 С 2 10 км 5/4
[Cu med, cong Ci fib]
+28.8 +16.1 46 +32 +40 душно 1018.5 1010.0
12 27.08 В 4 10 км 5/4
[Cu med, cong Ci fib]
+30.4 +15.5 41 +33 +37 душно 1017.4 1009.0
15 27.08 В 3 10 км 5/3
[Cb calv Ci fib]
+29.3 +15.3 43 +32 +32 душно 1017.2 1008.7 +30.7
18 27.08 СВ 6 8000 м 4/0
[Ac trans Ci fib]
+26.4 +13.9 46 +29 +29 жарко 1018.0 1009.5
21 27.08 СВ 6
{10}
8000 м 4/0
[Ac trans Ci fib]
+23.6 +10.5 44 +25 +25 комфорт 1018.4 1009.8
00 28.08 СВ 3
{10}
8000 м 4/0
[Ci fib]
+20.0 +11.5 58 +22 +22 комфорт 1018.4 1009.7
03 28.08 СВ 3 10 км 3/0
[Ci fib]
+18.7 +12.1 65 +20 +20 тепло 1018.8 1010.0 +18.6
06 28.08 В 5 10 км ясно +26.2 +12.5 43 +28 +31 жарко 1019.1 1010.5
09 28.08 В 5 10 км ясно +29.8 +11.2 32 +30 +37 жарко 1018.4 1009.9
12 28.08 В 5 10 км ясно +31.4 +8.8 25 +31 +35 жарко 1017.1 1008.7
15 28.08 В 3 10 км ясно +29.9 +11.2 31 +30 +31 жарко 1016.7 1008.3 +31.8
18 28.08 СВ 3 8000 м ясно +24.0 +11.8 46 +26 +26 жарко 1017.4 1008.8
21 28.08 СВ 3 8000 м ясно +22.0 +11.3 51 +24 +24 комфорт 1017.6 1008.9
00 29.08 СВ 2 8000 м ясно +20.6 +10.9 54 +23 +23 комфорт 1017.3 1008.6

 

Местоположение метеостанции Ростов-на-Дону (Ростовская область, Россия): широта 47.27 долгота 39.82 высота над уровнем моря 75 м.

В архиве по умолчанию представлена погода в Ростове-на-Дону за последнюю неделю. Архивные данные за месяц целиком и за предыдущие месяцы, начиная с января 2011 года, Вы можете получить, выбрав интересующий диапазон дат из раскрывающегося списка и нажав кнопку "Ввод!".

Внимание! Время в таблицах - всемирное. Для получения местного времени необходимо прибавить поправку, которая в Ростове-на-Дону равна 3 ч.

Ветер - указаны скорость ветра в м/с - средняя за 10 мин, порывы в срок и между сроками (в фигурных скобках) и направление, откуда дует ветер: С - северный, СВ - северо-восточный, В - восточный, ЮВ - юго-восточный, Ю - южный, ЮЗ - юго-западный, З - западный, СЗ - северо-западный.
Видимость - горизонтальная дальность видимости в метрах или километрах. При видимости от 1 до 10 км при отсутствии осадков обычно наблюдается дымка, при ухудшении видимости до 1 км и менее - туман. В сухую погоду видимость может ухудшаться дымом, пылью или мглою.
Явления - указаны атмосферные явления, наблюдавшиеся в срок или в последний час перед сроком; фигурными скобками обозначены явления, наблюдавшиеся между сроками (за 1-3 часа до срока); квадратными скобками обозначены град или гололедные отложения с указанием их диаметра в мм.
Облачность - указаны через наклонную черту общая и нижняя облачность в баллах и высота нижней границы облаков в метрах; квадратными скобками обозначены формы облаков: Ci - перистые, Cs - перисто-слоистые, Cc - перисто-кучевые, Ac - высококучевые, As - высокослоистые, Sc - слоисто-кучевые, Ns - слоисто-дождевые, Cu - кучевые, Cb - кучево-дождевые. Подробнее классификацию облаков см. в Атласе облаков (PDF).
T - Температура воздуха - температура, измеренная на высоте 2 м над землей.
Td - Температура точки росы - температура, при понижении до которой содержащийся в воздухе водяной пар достигнет насыщения.
f - Относительная влажность воздуха - влажноcть воздуха, измеренная на высоте 2 м над землей.
Te - Эффективная температура - температура, которую ощущает одетый по сезону человек в тени. Характеристика душности погоды. При расчете учитывается влияние влажности воздуха и скорости ветра на теплоощущения человека.
Tes - Эффективная температура на солнце - температура, которую ощущает человек, с поправкой на солнечный нагрев. Характеристика знойности погоды. Зависит от высоты солнца над горизонтом, облачности и скорости ветра. Ночью, в пасмурную погоду, а также при ветре 12 м/с и более поправка равна нулю.
P - Атмосферное давление - приведенное к уровню моря атмосферное давление.
Po - Атмосферное давление - измеренное на уровне метеостанции атмосферное давление.
Tmin - Минимальная температура - минимум температуры воздуха на высоте 2 м над землей.
Tmax - Максимальная температура - максимум температуры воздуха на высоте 2 м над землей.
R - Количество осадков - Количество выпавших осадков, мм. При наведении курсора мыши на число - период времени, за который выпало указанное количество осадков.
S - Снежный покров - Высота снежного покрова, см. При наведении курсора мыши на число - состояние снежного покрова и степень покрытия местности в баллах.